Retour au catalogue

STARLINK-36687

ActifCommunicationsSSO
NORAD 67711·PAYLOAD·🇺🇸 United States

Lancé Feb 7, 2026 depuis Vandenberg Space Force Base

Loading…

Prochains Passages (prochaines 24 heures)

TLE

FraisSource: CelesTrak SupGP

Époque: Sep 14, 2026, 23:06 UTC

1 67711C 26025U   26257.96298611 -.00026588  00000+0 -82506-3 0  2572
2 67711  97.2858   8.0228 0001172  99.3146 212.9835 15.33464226    13

Suivez STARLINK-36687 en temps réel avec AllMySat

Download on the App Store